FLYING LAPTOP

Last updated on Mon Jun 22 2026 00:03:38 GMT+0000 (Coordinated Universal Time)

1 42831U 17042G 26172.51823965 .00002809 00000+0 22268-3 0 9990 2 42831 97.4711 327.8846 0019774 107.8494 252.4889 15.01169766487108
UTC large
Height (km)
Speed (km/s)
/
Latitude / Longitude
Inclination (degrees)
Orbital Period (minutes)
Azimuth
Elevation
Range (km)
Doppler Factor

Next 0 passes for location: London (51.5072 / 0.1276)

No passes found over London.
FLYING LAPTOP